Change the Weather History Date:

Monday, November 26, 2012

  Actual Average Record
Temperature  
Mean Temperature 44 °F -  
Max Temperature 46 °F 44 °F 55 °F (2011)
Min Temperature 42 °F 38 °F 24 °F (2010)
Degree Days  
Heating Degree Days 21    
Moisture  
Dew Point 41 °F    
Average Humidity 88    
Maximum Humidity 100    
Minimum Humidity 73    
Precipitation  
Precipitation 0.20 in - - ()
Sea Level Pressure  
Sea Level Pressure 29.55 in    
Wind  
Wind Speed 12 mph ()    
Max Wind Speed 18 mph    
Max Gust Speed -    
Visibility 5.8 miles    
Events Rain    
Averages and records for this station are not official NWS values.
T = Trace of Precipitation, MM = Missing Value Source: Averaged Metar Reports

Daily Weather History Graph

Daily Weather History Graph

Search for Another Location

Airport or City:

Trip Planner

Search our weather history database for the weather conditions in past years. The results will help you decide how hot, cold, wet, or windy it might be!

Date:

Astronomy

Nov. 26, 2012 Rise Set
Actual Time 7:59 AM GMT 3:59 PM GMT
Civil Twilight 7:17 AM GMT 4:40 PM GMT
Nautical Twilight 6:33 AM GMT 5:25 PM GMT
Astronomical Twilight 5:51 AM GMT 6:07 PM GMT
Moon 2:52 PM GMT (11/26) 5:44 AM GMT (11/26)
Length of Visible Light 9h 22m
Length of Day
8h 00m
Waxing Gibbous, 96% of the Moon is Illuminated
Nov 26
Waxing Gibbous
Nov 28
Full
Dec 6
Last Quarter
Dec 13
New
Dec 20
First Quarter

Hourly Weather History & Observations

Time (GMT) Temp. Windchill Dew Point Humidity Pressure Visibility Wind Dir Wind Speed Gust Speed Precip Events Conditions
2:50 AM 42 °F - 40 °F 88%  in - East 18.4 mph - -  
5:50 AM 42 °F - 40 °F 91%  in - ENE 10.4 mph - -  
6:20 AM 42.8 °F 37.5 °F 41.0 °F 93% 29.47 in 2.5 mi ENE 9.2 mph - N/A Rain Light Rain
6:50 AM 42.8 °F 38.6 °F 42.8 °F 100% 29.47 in 3.7 mi NE 6.9 mph - N/A Rain Light Rain
7:20 AM 42.8 °F 38.0 °F 42.8 °F 100% 29.47 in 4.3 mi NE 8.1 mph - N/A   Partly Cloudy
7:50 AM 42.8 °F 37.5 °F 41.0 °F 93% 29.47 in 5.6 mi NE 9.2 mph - N/A   Scattered Clouds
8:20 AM 42.8 °F 36.6 °F 41.0 °F 93% 29.50 in 6.2 mi NNE 11.5 mph - N/A   Mostly Cloudy
8:50 AM 43 °F - 40 °F 84%  in - NNE 11.5 mph - -  
8:50 AM 44.6 °F 38.8 °F 41.0 °F 87% 29.50 in 6.2 mi NNE 11.5 mph - N/A   Mostly Cloudy
9:20 AM 44.6 °F 38.4 °F 41.0 °F 87% 29.50 in 6.2 mi NNE 12.7 mph - N/A   Mostly Cloudy
9:50 AM 44.6 °F 38.8 °F 41.0 °F 87% 29.53 in 6.2 mi NNE 11.5 mph - N/A Rain Light Rain
10:20 AM 44.6 °F 39.2 °F 41.0 °F 87% 29.53 in 4.3 mi NNE 10.4 mph - N/A Rain Light Rain
10:50 AM 44.6 °F 38.8 °F 41.0 °F 87% 29.53 in 5.0 mi NNE 11.5 mph - N/A Rain Light Rain
11:20 AM 44.6 °F 39.7 °F 42.8 °F 93% 29.53 in 6.2 mi North 9.2 mph - N/A   Scattered Clouds
11:50 AM 45 °F - 40 °F 78%  in - North 13.8 mph - -  
11:50 AM 44.6 °F 38.1 °F 42.8 °F 93% 29.53 in 6.2 mi North 13.8 mph - N/A Rain Light Rain
12:20 PM 44.6 °F 37.4 °F 41.0 °F 87% 29.53 in 6.2 mi North 16.1 mph - N/A Rain Light Rain
12:50 PM 44.6 °F 38.4 °F 42.8 °F 93% 29.53 in 6.2 mi North 12.7 mph - N/A Rain Light Rain
1:20 PM 44.6 °F 38.1 °F 42.8 °F 93% 29.53 in 6.2 mi North 13.8 mph - N/A   Mostly Cloudy
1:50 PM 44.6 °F 37.4 °F 41.0 °F 87% 29.56 in 6.2 mi North 16.1 mph - N/A Rain Rain
2:20 PM 44.6 °F 37.8 °F 42.8 °F 93% 29.56 in 6.2 mi North 15.0 mph - N/A Rain Rain
2:50 PM 44 °F - 40 °F 82%  in - North 16.1 mph - -  
2:50 PM 44.6 °F 37.4 °F 41.0 °F 87% 29.56 in 6.2 mi North 16.1 mph - N/A Rain Rain
3:20 PM 44.6 °F 37.4 °F 41.0 °F 87% 29.56 in 6.2 mi North 16.1 mph - N/A Rain Rain
3:50 PM 44.6 °F 37.4 °F 41.0 °F 87% 29.56 in 6.2 mi North 16.1 mph - N/A Rain Rain
4:20 PM 44.6 °F 36.9 °F 41.0 °F 87% 29.59 in 6.2 mi North 18.4 mph - N/A Rain Rain
4:50 PM 44.6 °F 37.4 °F 41.0 °F 87% 29.59 in 6.2 mi North 16.1 mph - N/A Rain Rain
5:20 PM 44.6 °F 38.1 °F 41.0 °F 87% 29.59 in 6.2 mi North 13.8 mph - N/A Rain Rain
5:50 PM 45 °F - 40 °F 76%  in - North 13.8 mph - -  
5:50 PM 44.6 °F 38.1 °F 41.0 °F 87% 29.62 in 6.2 mi North 13.8 mph - N/A Rain Light Rain
6:20 PM 44.6 °F 37.8 °F 41.0 °F 87% 29.62 in 6.2 mi North 15.0 mph - N/A Rain Light Rain
6:50 PM 44.6 °F 37.4 °F 41.0 °F 87% 29.62 in 6.2 mi North 16.1 mph - N/A Rain Light Rain
7:20 PM 44.6 °F 37.4 °F 41.0 °F 87% 29.62 in 6.2 mi North 16.1 mph - N/A   Mostly Cloudy
7:50 PM 44.6 °F 37.4 °F 41.0 °F 87% 29.65 in 6.2 mi North 16.1 mph - N/A   Mostly Cloudy
8:20 PM 46.4 °F 40.1 °F 41.0 °F 81% 29.65 in 6.2 mi North 15.0 mph - N/A   Mostly Cloudy
8:50 PM 45 °F - 39 °F 73%  in - North 16.1 mph - -  
8:50 PM 44.6 °F 37.8 °F 41.0 °F 87% 29.65 in 6.2 mi North 15.0 mph - N/A   Mostly Cloudy
11:50 PM 43 °F - 39 °F 80%  in - North 16.1 mph - -